date,time,DOY,Ta_1_1_1,RH_1_1_1,LWin_1_1_1,LWout_1_1_1,SWin_1_1_1,SWout_1_1_1,PPFD_1_1_1,SWC_1_1_1,Ts_1_1_1
[yyyy-mm-dd],[HH:MM],[ddd.ddd],[K],[%],[W+1m-2],[W+1m-2],[W+1m-2],[W+1m-2],[µmol+1m-2s-1],[m+3m-3],[K]
2013-01-16,00:30,16.020,266.53333333333336,71.597333333333324,-7.2666666666666675,-9999.0,0.47433333333333344,-3.2006666666666663,1.46666666666666681E-002,-9999.0,279.90999999999991
2013-01-16,01:00,16.041,266.58133333333336,70.977333333333334,-6.7530000000000001,-9999.0,0.36833333333333335,-2.6610000000000000,9.33333333333333411E-003,-9999.0,279.90999999999991
2013-01-16,01:30,16.062,266.77166666666676,69.621000000000009,-5.5670000000000011,-9999.0,0.12133333333333331,-1.5230000000000001,6.33333333333333491E-003,-9999.0,279.90999999999991
2013-01-16,02:00,16.083,266.87700000000001,68.887666666666689,-5.5240000000000000,-9999.0,4.36666666666666800E-002,-1.4883333333333333,1.06666666666666680E-002,-9999.0,279.90999999999991
2013-01-16,02:30,16.104,266.73800000000000,69.571999999999974,-5.5729999999999977,-9999.0,2.96666666666666676E-002,-1.7780000000000000,3.33333333333333268E-003,-9999.0,279.90999999999991
2013-01-16,03:00,16.124,266.45999999999998,69.976333333333329,-5.6409999999999973,-9999.0,9.16666666666666463E-002,-2.0636666666666668,4.00000000000000008E-003,-9999.0,279.90999999999991
2013-01-16,03:30,16.145,266.26500000000004,70.728999999999999,-4.8489999999999993,-9999.0,-1.63333333333333351E-002,-1.2606666666666668,1.10000000000000028E-002,-9999.0,279.90999999999991
2013-01-16,04:00,16.166,266.36600000000004,69.645666666666685,-4.1730000000000000,-9999.0,-7.70000000000000268E-002,-0.66866666666666685,3.66666666666666703E-003,-9999.0,279.90999999999991
2013-01-16,04:30,16.187,266.54966666666672,68.504666666666665,-4.1096666666666666,-9.8699999999999992,-0.12633333333333335,-0.46833333333333343,5.33333333333333316E-003,-9999.0,279.90999999999991
2013-01-16,05:00,16.208,266.22233333333338,76.832333333333324,-3.7890000000000001,-8.8966666666666683,-0.24833333333333338,-0.49500000000000011,2.33333333333333396E-003,-9999.0,279.90999999999991
2013-01-16,05:30,16.229,265.99599999999998,82.955999999999975,-3.5006666666666670,-7.8823333333333334,-0.19433333333333336,-0.40800000000000003,2.66666666666666614E-003,-9999.0,279.90999999999991
2013-01-16,06:00,16.249,265.95233333333334,83.650666666666666,-3.2823333333333333,-6.9736666666666673,-0.13499999999999998,-0.30400000000000005,7.00000000000000015E-003,-9999.0,279.90999999999991
2013-01-16,06:30,16.270,266.07533333333339,83.548666666666662,-3.5849999999999991,-8.6933333333333334,-0.14500000000000005,-0.45966666666666683,8.33333333333333322E-003,-9999.0,279.90999999999991
2013-01-16,07:00,16.291,266.15766666666673,88.003999999999976,-3.7519999999999993,-8.2612000000000005,-0.12099999999999998,-0.41699999999999998,1.36666666666666672E-002,-9999.0,279.90999999999991
2013-01-16,07:30,16.312,266.51500000000004,88.326666666666668,-3.7536666666666667,-9.4236363636363638,-2.90000000000000049E-002,-0.27899999999999997,0.38366666666666666,-9999.0,279.90999999999991
2013-01-16,08:00,16.333,266.84299999999996,87.064333333333323,-3.8333333333333330,-9.6521428571428594,0.60333333333333328,2.8900000000000006,7.3030000000000008,-9999.0,279.90999999999991
2013-01-16,08:30,16.354,267.10666666666668,85.085666666666697,-3.8696666666666664,-9.8849999999999998,1.3633333333333335,6.5720000000000001,14.824666666666669,-9999.0,279.90999999999991
2013-01-16,09:00,16.374,267.22233333333332,85.305333333333309,-3.9163333333333328,-9.6747368421052631,2.3506666666666667,11.944666666666667,27.091666666666672,-9999.0,279.90999999999991
2013-01-16,09:30,16.395,267.31466666666671,87.186999999999998,-3.9073333333333324,-9.2199999999999989,3.8529999999999993,19.767666666666663,44.198666666666675,-9999.0,279.90999999999991
2013-01-16,10:00,16.416,267.35100000000000,89.779999999999987,-3.4303333333333339,-8.2830000000000013,6.5259999999999989,33.190999999999995,73.351333333333315,-9999.0,279.90999999999991
2013-01-16,10:30,16.437,267.36933333333337,92.910666666666671,-3.4376666666666669,-7.3440000000000021,4.1343333333333332,22.947333333333333,52.339999999999996,-9999.0,279.90999999999991
2013-01-16,11:00,16.458,267.48633333333339,94.069000000000017,-3.5186666666666673,-7.0896666666666670,4.0696666666666665,22.410333333333334,52.281333333333329,-9999.0,279.90999999999991
2013-01-16,11:30,16.479,267.67566666666670,94.822333333333319,-3.5906666666666665,-6.8640000000000008,7.0109999999999992,36.874000000000002,82.940666666666672,-9999.0,279.90999999999991
2013-01-16,12:00,16.499,268.07166666666666,94.633000000000038,-3.7093333333333334,-7.3650000000000011,7.5546666666666660,38.961333333333329,88.388333333333350,-9999.0,279.90999999999991
2013-01-16,12:30,16.520,268.64100000000002,91.137000000000000,-4.0873333333333326,-8.7699999999999996,8.1623333333333310,40.651666666666671,93.423666666666662,-9999.0,279.90999999999991
2013-01-16,13:00,16.541,268.89233333333334,87.173999999999964,-4.3496666666666659,-9999.0,7.2956666666666665,35.369999999999997,84.014666666666656,-9999.0,279.90999999999991
2013-01-16,13:30,16.562,268.91066666666677,85.046666666666681,-4.0930000000000000,-9999.0,6.4283333333333328,30.654666666666664,73.497000000000000,-9999.0,279.90999999999991
2013-01-16,14:00,16.583,268.88599999999997,80.453999999999979,-4.1210000000000004,-9999.0,20.176666666666669,98.400333333333322,205.88099999999997,-9999.0,279.90999999999991
2013-01-16,14:30,16.604,268.94766666666663,70.678000000000011,-4.4553333333333329,-9999.0,19.769333333333332,97.196666666666687,197.37766666666670,-9999.0,279.90999999999991
2013-01-16,15:00,16.624,268.64833333333337,68.943666666666687,-4.7183333333333337,-9999.0,12.514999999999999,61.997666666666667,127.25899999999997,-9999.0,279.90999999999991
2013-01-16,15:30,16.645,268.14633333333336,68.117333333333349,-4.8043333333333349,-9999.0,7.4983333333333322,37.629666666666665,78.006666666666661,-9999.0,279.90999999999991
2013-01-16,16:00,16.666,267.56966666666665,69.381333333333316,-4.5053333333333336,-9999.0,5.4006666666666661,27.224333333333341,54.313333333333347,-9999.0,279.90999999999991
2013-01-16,16:30,16.687,267.00500000000005,68.895666666666656,-5.0036666666666685,-9999.0,3.5899999999999990,17.061999999999994,33.521000000000001,-9999.0,279.90999999999991
2013-01-16,17:00,16.708,266.52100000000002,67.919000000000011,-5.3500000000000005,-9999.0,0.75533333333333330,1.9340000000000002,6.7486666666666677,-9999.0,279.90999999999991
2013-01-16,17:30,16.729,266.05966666666671,71.301666666666677,-4.5649999999999986,-9999.0,-0.11966666666666666,-1.1726666666666665,8.53333333333332611E-002,-9999.0,279.90999999999991
2013-01-16,18:00,16.749,265.66666666666669,73.462666666666664,-4.1686666666666659,-9999.0,-0.22866666666666671,-0.88166666666666660,6.33333333333333404E-003,-9999.0,279.90999999999991
2013-01-16,18:30,16.770,264.93399999999997,80.880666666666670,-4.0293333333333328,-9999.0,-0.33566666666666667,-0.91033333333333333,1.06666666666666680E-002,-9999.0,279.90999999999991
2013-01-16,19:00,16.791,264.58233333333339,83.762666666666689,-4.0356666666666667,-9.3800000000000008,-0.35833333333333339,-0.83666666666666678,6.33333333333333318E-003,-9999.0,279.90999999999991
2013-01-16,19:30,16.812,264.28366666666676,82.097666666666640,-3.9463333333333335,-9999.0,-0.22633333333333330,-0.80500000000000027,8.66666666666666627E-003,-9999.0,279.90999999999991
2013-01-16,20:00,16.833,263.76366666666661,71.580333333333343,-3.8053333333333330,-9999.0,-0.19833333333333342,-0.81733333333333347,8.00000000000000017E-003,-9999.0,279.90999999999991
2013-01-16,20:30,16.854,263.42300000000006,66.113666666666660,-4.0093333333333332,-9999.0,-0.12700000000000003,-0.94933333333333314,7.00000000000000188E-003,-9999.0,279.90999999999991
2013-01-16,21:00,16.874,262.82966666666664,62.301333333333346,-3.8213333333333339,-9999.0,-0.23666666666666675,-0.98099999999999998,1.33333333333333377E-002,-9999.0,279.90999999999991
2013-01-16,21:30,16.895,262.26733333333334,63.699333333333364,-3.5850000000000000,-9999.0,-0.21533333333333332,-0.96133333333333360,3.99999999999999922E-003,-9999.0,279.90999999999991
2013-01-16,22:00,16.916,261.88900000000001,61.231999999999999,-4.4153333333333338,-9999.0,-3.70000000000000051E-002,-1.7183333333333337,5.00000000000000097E-003,-9999.0,279.90999999999991
2013-01-16,22:30,16.937,261.19233333333329,58.095999999999989,-6.3706666666666667,-9999.0,0.29866666666666675,-3.4286666666666665,1.03333333333333350E-002,-9999.0,279.90999999999991
2013-01-16,23:00,16.958,260.56266666666676,60.805000000000014,-6.3173333333333339,-9999.0,0.51233333333333320,-3.4279999999999999,7.00000000000000101E-003,-9999.0,279.90999999999991
2013-01-16,23:30,16.979,260.10833333333341,63.465333333333348,-5.3013333333333339,-9999.0,0.30066666666666675,-2.3693333333333331,1.00000000000000019E-002,-9999.0,279.90999999999991
2013-01-17,00:00,17.000,259.61533333333330,78.371666666666684,-3.0606666666666671,-9.3790909090909071,-0.36033333333333328,-0.71066666666666667,1.53333333333333360E-002,-9999.0,279.90999999999991
